| time (UTC) | temp F | wind direction | speed knots | gust knots | rain 1hr in | rain 24hr in | rain mn in | humidity % | barometer mb |
| 20260510021023 | 68 | 13 | 2.6 | 4.3 | 0.00 | 0.00 | 0.00 | 14 | 1018.3 |
| 20260510020516 | 69 | 279 | 0.9 | 2.6 | 0.00 | 0.00 | 0.00 | 15 | 1018.2 |
| 20260510020012 | 69 | 5 | 0.0 | 1.7 | 0.00 | 0.00 | 0.00 | 15 | 1018.2 |
| 20260510015522 | 70 | 5 | 0.9 | 1.7 | 0.00 | 0.00 | 0.00 | 14 | 1018.2 |
| 20260510015022 | 70 | 5 | 0.9 | 4.3 | 0.00 | 0.00 | 0.00 | 14 | 1018.1 |
| 20260510014514 | 70 | 216 | 1.7 | 4.3 | 0.00 | 0.00 | 0.00 | 13 | 1018.0 |
| 20260510014029 | 70 | 15 | 1.7 | 4.3 | 0.00 | 0.00 | 0.00 | 13 | 1018.0 |
| 20260510013522 | 70 | 39 | 1.7 | 4.3 | 0.00 | 0.00 | 0.00 | 13 | 1018.0 |
| 20260510013016 | 71 | 19 | 1.7 | 2.6 | 0.00 | 0.00 | 0.00 | 12 | 1017.9 |
| 20260510012550 | 71 | 346 | 1.7 | 2.6 | 0.00 | 0.00 | 0.00 | 12 | 1017.9 |
| 20260510012023 | 72 | 221 | 0.9 | 2.6 | 0.00 | 0.00 | 0.00 | 13 | 1017.8 |
| 20260510011517 | 72 | 221 | 1.7 | 2.6 | 0.00 | 0.00 | 0.00 | 13 | 1017.7 |
| 20260510011009 | 72 | 321 | 0.9 | 3.5 | 0.00 | 0.00 | 0.00 | 12 | 1017.6 |
| 20260510010529 | 72 | 40 | 1.7 | 4.3 | 0.00 | 0.00 | 0.00 | 12 | 1017.6 |
| 20260510010039 | 72 | 327 | 2.6 | 5.2 | 0.00 | 0.00 | 0.00 | 12 | 1017.6 |
| 20260510005511 | 72 | 269 | 0.9 | 9.6 | 0.00 | 0.00 | 0.00 | 12 | 1017.6 |
| 20260510005045 | 73 | 66 | 2.6 | 9.6 | 0.00 | 0.00 | 0.00 | 12 | 1017.6 |
| 20260510004517 | 73 | 36 | 1.7 | 4.3 | 0.00 | 0.00 | 0.00 | 12 | 1017.5 |
| 20260510004011 | 73 | 271 | 1.7 | 4.3 | 0.00 | 0.00 | 0.00 | 12 | 1017.4 |
| 20260510003525 | 73 | 275 | 0.9 | 5.2 | 0.00 | 0.00 | 0.00 | 12 | 1017.6 |
| 20260510003018 | 74 | 57 | 1.7 | 11.3 | 0.00 | 0.00 | 0.00 | 12 | 1017.4 |
| 20260510002511 | 74 | 136 | 0.9 | 11.3 | 0.00 | 0.00 | 0.00 | 12 | 1017.5 |
| 20260510002009 | 74 | 48 | 2.6 | 9.6 | 0.00 | 0.00 | 0.00 | 12 | 1017.3 |
| 20260510001525 | 74 | 219 | 3.5 | 9.6 | 0.00 | 0.00 | 0.00 | 12 | 1017.3 |
| 20260510001039 | 74 | 26 | 1.7 | 7.0 | 0.00 | 0.00 | 0.00 | 11 | 1017.4 |
| 20260510000532 | 74 | 343 | 3.5 | 10.4 | 0.00 | 0.00 | 0.00 | 11 | 1017.6 |
| 20260510000043 | 76 | 355 | 4.3 | 10.4 | 0.00 | 0.00 | 0.00 | 11 | 1017.6 |
| 20260509235515 | 76 | 51 | 1.7 | 6.1 | 0.00 | 0.00 | 0.00 | 11 | 1017.6 |
| 20260509235028 | 76 | 233 | 2.6 | 5.2 | 0.00 | 0.00 | 0.00 | 11 | 1017.6 |
| 20260509234522 | 75 | 57 | 2.6 | 9.6 | 0.00 | 0.00 | 0.00 | 11 | 1017.6 |
| 20260509234037 | 75 | 15 | 4.3 | 9.6 | 0.00 | 0.00 | 0.00 | 11 | 1017.7 |
| 20260509233510 | 75 | 255 | 3.5 | 10.4 | 0.00 | 0.00 | 0.00 | 11 | 1017.7 |
| 20260509233044 | 75 | 39 | 2.6 | 8.7 | 0.00 | 0.00 | 0.00 | 11 | 1017.8 |
| 20260509232521 | 75 | 36 | 4.3 | 8.7 | 0.00 | 0.00 | 0.00 | 10 | 1017.6 |
| 20260509232014 | 75 | 14 | 3.5 | 8.7 | 0.00 | 0.00 | 0.00 | 10 | 1017.6 |
| 20260509231529 | 75 | 333 | 1.7 | 7.8 | 0.00 | 0.00 | 0.00 | 11 | 1017.6 |
| 20260509231041 | 75 | 313 | 1.7 | 7.8 | 0.00 | 0.00 | 0.00 | 11 | 1017.5 |
| 20260509230536 | 76 | 338 | 2.6 | 9.6 | 0.00 | 0.00 | 0.00 | 11 | 1017.8 |
| 20260509230029 | 76 | 224 | 2.6 | 9.6 | 0.00 | 0.00 | 0.00 | 10 | 1017.6 |
| 20260509225523 | 76 | 340 | 2.6 | 7.8 | 0.00 | 0.00 | 0.00 | 11 | 1017.4 |
| 20260509225037 | 76 | 61 | 2.6 | 7.8 | 0.00 | 0.00 | 0.00 | 11 | 1017.7 |
| 20260509224529 | 76 | 13 | 2.6 | 7.8 | 0.00 | 0.00 | 0.00 | 11 | 1017.7 |
| 20260509224027 | 76 | 290 | 2.6 | 5.2 | 0.00 | 0.00 | 0.00 | 11 | 1017.5 |
| 20260509223519 | 76 | 300 | 2.6 | 9.6 | 0.00 | 0.00 | 0.00 | 11 | 1017.7 |
| 20260509223013 | 76 | 275 | 4.3 | 9.6 | 0.00 | 0.00 | 0.00 | 11 | 1017.6 |
| 20260509222546 | 76 | 53 | 4.3 | 9.6 | 0.00 | 0.00 | 0.00 | 11 | 1017.4 |
| 20260509222020 | 76 | 145 | 1.7 | 7.8 | 0.00 | 0.00 | 0.00 | 12 | 1017.8 |
| 20260509221513 | 76 | 355 | 2.6 | 11.3 | 0.00 | 0.00 | 0.00 | 11 | 1017.9 |
| 20260509221047 | 77 | 48 | 3.5 | 11.3 | 0.00 | 0.00 | 0.00 | 11 | 1017.8 |
| 20260509220519 | 77 | 346 | 3.5 | 7.8 | 0.00 | 0.00 | 0.00 | 11 | 1017.7 |
| 20260509220013 | 78 | 46 | 3.5 | 7.8 | 0.00 | 0.00 | 0.00 | 11 | 1017.9 |
| 20260509215511 | 77 | 270 | 2.6 | 7.8 | 0.00 | 0.00 | 0.00 | 11 | 1017.7 |
| 20260509215046 | 77 | 79 | 1.7 | 10.4 | 0.00 | 0.00 | 0.00 | 12 | 1017.7 |
| 20260509214520 | 77 | 39 | 5.2 | 10.4 | 0.00 | 0.00 | 0.00 | 11 | 1017.9 |
| 20260509214013 | 77 | 80 | 1.7 | 12.2 | 0.00 | 0.00 | 0.00 | 11 | 1018.0 |
| 20260509213527 | 77 | 27 | 2.6 | 12.2 | 0.00 | 0.00 | 0.00 | 11 | 1018.1 |
| 20260509213040 | 77 | 10 | 2.6 | 9.6 | 0.00 | 0.00 | 0.00 | 11 | 1018.1 |
| 20260509212511 | 77 | 26 | 3.5 | 7.8 | 0.00 | 0.00 | 0.00 | 12 | 1018.1 |
| 20260509212025 | 76 | 32 | 3.5 | 10.4 | 0.00 | 0.00 | 0.00 | 12 | 1018.2 |
| 20260509211535 | 77 | 62 | 3.5 | 10.4 | 0.00 | 0.00 | 0.00 | 11 | 1018.1 |
| 20260509211010 | 78 | 299 | 4.3 | 10.4 | 0.00 | 0.00 | 0.00 | 11 | 1018.4 |
| 20260509210523 | 79 | 298 | 3.5 | 13.0 | 0.00 | 0.00 | 0.00 | 11 | 1018.2 |
| 20260509210036 | 79 | 276 | 4.3 | 13.0 | 0.00 | 0.00 | 0.00 | 10 | 1018.4 |
| 20260509205549 | 79 | 317 | 3.5 | 7.8 | 0.00 | 0.00 | 0.00 | 11 | 1018.4 |
| 20260509205017 | 79 | 201 | 3.5 | 7.8 | 0.00 | 0.00 | 0.00 | 11 | 1018.6 |
| 20260509204510 | 79 | 296 | 3.5 | 7.8 | 0.00 | 0.00 | 0.00 | 11 | 1018.5 |
| 20260509204028 | 78 | 57 | 2.6 | 6.1 | 0.00 | 0.00 | 0.00 | 12 | 1018.6 |
| 20260509203517 | 78 | 259 | 3.5 | 7.0 | 0.00 | 0.00 | 0.00 | 11 | 1018.7 |
| 20260509203010 | 77 | 321 | 1.7 | 7.8 | 0.00 | 0.00 | 0.00 | 12 | 1018.8 |
| 20260509202524 | 77 | 220 | 2.6 | 7.8 | 0.00 | 0.00 | 0.00 | 11 | 1018.8 |
| 20260509202019 | 77 | 297 | 3.5 | 7.8 | 0.00 | 0.00 | 0.00 | 12 | 1018.9 |
| 20260509201533 | 76 | 82 | 5.2 | 8.7 | 0.00 | 0.00 | 0.00 | 14 | 1019.1 |
| 20260509201025 | 75 | 338 | 3.5 | 7.8 | 0.00 | 0.00 | 0.00 | 13 | 1019.0 |
| 20260509200542 | 75 | 163 | 3.5 | 7.8 | 0.00 | 0.00 | 0.00 | 13 | 1019.2 |
| 20260509200016 | 75 | 313 | 3.5 | 8.7 | 0.00 | 0.00 | 0.00 | 13 | 1019.2 |
| 20260509195510 | 76 | 355 | 4.3 | 8.7 | 0.00 | 0.00 | 0.00 | 12 | 1019.3 |
| 20260509195023 | 78 | 348 | 4.3 | 8.7 | 0.00 | 0.00 | 0.00 | 12 | 1019.4 |
| 20260509194536 | 78 | 108 | 2.6 | 8.7 | 0.00 | 0.00 | 0.00 | 12 | 1019.2 |
| 20260509194010 | 78 | 71 | 3.5 | 9.6 | 0.00 | 0.00 | 0.00 | 12 | 1019.4 |
| 20260509193524 | 78 | 348 | 3.5 | 9.6 | 0.00 | 0.00 | 0.00 | 13 | 1019.3 |
| 20260509193017 | 78 | 9 | 1.7 | 7.8 | 0.00 | 0.00 | 0.00 | 12 | 1019.3 |
| 20260509192514 | 78 | 298 | 4.3 | 7.8 | 0.00 | 0.00 | 0.00 | 12 | 1019.3 |
| 20260509192028 | 77 | 291 | 2.6 | 11.3 | 0.00 | 0.00 | 0.00 | 13 | 1019.4 |
| 20260509191542 | 77 | 138 | 2.6 | 7.8 | 0.00 | 0.00 | 0.00 | 12 | 1019.4 |
| 20260509191011 | 77 | 257 | 4.3 | 11.3 | 0.00 | 0.00 | 0.00 | 12 | 1019.4 |
| 20260509190524 | 77 | 190 | 3.5 | 11.3 | 0.00 | 0.00 | 0.00 | 12 | 1019.4 |
| 20260509190017 | 77 | 142 | 2.6 | 7.8 | 0.00 | 0.00 | 0.00 | 13 | 1019.5 |
| 20260509185531 | 77 | 35 | 3.5 | 7.0 | 0.00 | 0.00 | 0.00 | 12 | 1019.7 |
| 20260509185024 | 77 | 13 | 1.7 | 13.9 | 0.00 | 0.00 | 0.00 | 13 | 1019.5 |
| 20260509184518 | 76 | 180 | 5.2 | 13.9 | 0.00 | 0.00 | 0.00 | 12 | 1019.5 |
| 20260509184013 | 76 | 266 | 1.7 | 7.8 | 0.00 | 0.00 | 0.00 | 13 | 1019.6 |
| 20260509183531 | 76 | 219 | 2.6 | 7.8 | 0.00 | 0.00 | 0.00 | 13 | 1019.7 |
| 20260509183024 | 75 | 331 | 2.6 | 7.8 | 0.00 | 0.00 | 0.00 | 13 | 1019.8 |
| 20260509182518 | 74 | 161 | 3.5 | 10.4 | 0.00 | 0.00 | 0.00 | 13 | 1019.9 |
| 20260509182011 | 74 | 81 | 4.3 | 10.4 | 0.00 | 0.00 | 0.00 | 13 | 1019.9 |
| 20260509181524 | 73 | 126 | 2.6 | 6.1 | 0.00 | 0.00 | 0.00 | 14 | 1020.1 |
| 20260509181018 | 74 | 49 | 3.5 | 7.0 | 0.00 | 0.00 | 0.00 | 13 | 1020.0 |
| 20260509180513 | 73 | 257 | 1.7 | 6.1 | 0.00 | 0.00 | 0.00 | 13 | 1020.2 |
| 20260509180028 | 73 | 340 | 3.5 | 6.1 | 0.00 | 0.00 | 0.00 | 13 | 1020.4 |
| 20260509175523 | 73 | 54 | 1.7 | 9.6 | 0.00 | 0.00 | 0.00 | 13 | 1020.3 |
| 20260509175017 | 73 | 44 | 6.1 | 9.6 | 0.00 | 0.00 | 0.00 | 13 | 1020.6 |
| 20260509174511 | 73 | 327 | 1.7 | 7.0 | 0.00 | 0.00 | 0.00 | 13 | 1020.5 |
| 20260509174025 | 73 | 302 | 2.6 | 7.0 | 0.00 | 0.00 | 0.00 | 14 | 1020.4 |
| 20260509173518 | 73 | 346 | 4.3 | 8.7 | 0.00 | 0.00 | 0.00 | 14 | 1020.4 |
| 20260509173033 | 73 | 82 | 3.5 | 9.6 | 0.00 | 0.00 | 0.00 | 13 | 1020.6 |
| 20260509172544 | 73 | 124 | 2.6 | 9.6 | 0.00 | 0.00 | 0.00 | 14 | 1020.5 |
| 20260509172017 | 73 | 39 | 3.5 | 16.5 | 0.00 | 0.00 | 0.00 | 14 | 1020.6 |
| 20260509171511 | 73 | 43 | 4.3 | 9.6 | 0.00 | 0.00 | 0.00 | 14 | 1020.6 |
| 20260509171028 | 73 | 304 | 1.7 | 13.9 | 0.00 | 0.00 | 0.00 | 14 | 1020.6 |
| 20260509170522 | 72 | 64 | 7.8 | 13.9 | 0.00 | 0.00 | 0.00 | 13 | 1020.5 |
| 20260509170016 | 73 | 58 | 2.6 | 7.0 | 0.00 | 0.00 | 0.00 | 14 | 1021.0 |
| 20260509165509 | 73 | 208 | 3.5 | 7.0 | 0.00 | 0.00 | 0.00 | 14 | 1020.7 |
| 20260509165023 | 74 | 309 | 3.5 | 7.0 | 0.00 | 0.00 | 0.00 | 14 | 1020.8 |
| 20260509164528 | 74 | 250 | 3.5 | 10.4 | 0.00 | 0.00 | 0.00 | 17 | 1020.6 |
| 20260509164013 | 73 | 150 | 5.2 | 10.4 | 0.00 | 0.00 | 0.00 | 17 | 1020.5 |
| 20260509163528 | 72 | 145 | 3.5 | 9.6 | 0.00 | 0.00 | 0.00 | 18 | 1020.6 |
| 20260509163021 | 72 | 59 | 3.5 | 9.6 | 0.00 | 0.00 | 0.00 | 19 | 1020.8 |
| 20260509162535 | 72 | 159 | 3.5 | 10.4 | 0.00 | 0.00 | 0.00 | 17 | 1020.7 |
| 20260509162025 | 72 | 350 | 3.5 | 11.3 | 0.00 | 0.00 | 0.00 | 16 | 1020.8 |
| 20260509161522 | 72 | 55 | 3.5 | 11.3 | 0.00 | 0.00 | 0.00 | 15 | 1020.7 |
| 20260509161017 | 71 | 300 | 3.5 | 8.7 | 0.00 | 0.00 | 0.00 | 16 | 1020.6 |
| 20260509160510 | 71 | 280 | 4.3 | 8.7 | 0.00 | 0.00 | 0.00 | 15 | 1020.8 |
| 20260509160024 | 71 | 91 | 2.6 | 7.0 | 0.00 | 0.00 | 0.00 | 17 | 1020.6 |
| 20260509155517 | 70 | 360 | 2.6 | 10.4 | 0.00 | 0.00 | 0.00 | 19 | 1020.7 |
| 20260509155010 | 70 | 210 | 4.3 | 10.4 | 0.00 | 0.00 | 0.00 | 17 | 1020.6 |
| 20260509154524 | 70 | 45 | 2.6 | 4.3 | 0.00 | 0.00 | 0.00 | 19 | 1020.7 |
| 20260509154021 | 69 | 89 | 2.6 | 7.0 | 0.00 | 0.00 | 0.00 | 20 | 1020.6 |
| 20260509153514 | 69 | 178 | 1.7 | 7.0 | 0.00 | 0.00 | 0.00 | 22 | 1020.6 |
| 20260509153028 | 68 | 308 | 1.7 | 6.1 | 0.00 | 0.00 | 0.00 | 22 | 1020.6 |
| 20260509152522 | 67 | 126 | 0.9 | 7.8 | 0.00 | 0.00 | 0.00 | 23 | 1020.7 |
| 20260509152015 | 67 | 83 | 0.9 | 3.5 | 0.00 | 0.00 | 0.00 | 24 | 1020.6 |
| 20260509151528 | 67 | 49 | 0.9 | 2.6 | 0.00 | 0.00 | 0.00 | 25 | 1020.8 |
| 20260509151022 | 66 | 46 | 0.9 | 5.2 | 0.00 | 0.00 | 0.00 | 24 | 1020.8 |
| 20260509150515 | 66 | 146 | 0.9 | 5.2 | 0.00 | 0.00 | 0.00 | 24 | 1020.9 |
| 20260509150048 | 66 | 49 | 2.6 | 3.5 | 0.00 | 0.00 | 0.00 | 25 | 1020.9 |
| 20260509145521 | 66 | 155 | 0.9 | 4.3 | 0.00 | 0.00 | 0.00 | 26 | 1020.9 |
| 20260509145019 | 66 | 155 | 3.5 | 5.2 | 0.00 | 0.00 | 0.00 | 25 | 1020.9 |
| 20260509144514 | 66 | 129 | 1.7 | 3.5 | 0.00 | 0.00 | 0.00 | 26 | 1021.0 |
| 20260509144010 | 65 | 53 | 1.7 | 2.6 | 0.00 | 0.00 | 0.00 | 27 | 1021.1 |
| 20260509143545 | 64 | 151 | 0.9 | 4.3 | 0.00 | 0.00 | 0.00 | 27 | 1020.9 |
| 20260509143011 | 63 | 136 | 1.7 | 4.3 | 0.00 | 0.00 | 0.00 | 27 | 1020.9 |
| 20260509033126 | 64 | 5 | 2.6 | 3.5 | 0.00 | 0.00 | 0.00 | 23 | 1019.4 |
| 20260509032639 | 64 | 313 | 0.0 | 0.0 | 0.00 | 0.00 | 0.00 | 22 | 1019.4 |
| 20260509032134 | 64 | 313 | 0.0 | 0.0 | 0.00 | 0.00 | 0.00 | 23 | 1019.3 |
| 20260509031647 | 65 | 313 | 0.0 | 0.0 | 0.00 | 0.00 | 0.00 | 22 | 1019.3 |
| 20260509031139 | 65 | 313 | 0.0 | 0.9 | 0.00 | 0.00 | 0.00 | 22 | 1019.2 |
| 20260509030633 | 66 | 293 | 0.0 | 3.5 | 0.00 | 0.00 | 0.00 | 21 | 1019.2 |
| 20260509030131 | 66 | 328 | 1.7 | 3.5 | 0.00 | 0.00 | 0.00 | 21 | 1019.2 |
| 20260509025624 | 66 | 335 | 0.9 | 3.5 | 0.00 | 0.00 | 0.00 | 21 | 1019.1 |
| 20260509025137 | 66 | 343 | 0.9 | 2.6 | 0.00 | 0.00 | 0.00 | 21 | 1019.0 |
| 20260509024632 | 66 | 326 | 0.9 | 5.2 | 0.00 | 0.00 | 0.00 | 20 | 1018.9 |
| 20260509024125 | 67 | 263 | 1.7 | 5.2 | 0.00 | 0.00 | 0.00 | 20 | 1018.9 |
| 20260509023637 | 67 | 315 | 1.7 | 7.0 | 0.00 | 0.00 | 0.00 | 20 | 1018.9 |
| 20260509023151 | 67 | 51 | 1.7 | 7.0 | 0.00 | 0.00 | 0.00 | 20 | 1018.8 |
| 20260509022625 | 67 | 350 | 2.6 | 7.0 | 0.00 | 0.00 | 0.00 | 19 | 1018.7 |
| 20260509022123 | 67 | 78 | 1.7 | 7.0 | 0.00 | 0.00 | 0.00 | 20 | 1018.6 |
| 20260509021637 | 67 | 29 | 2.6 | 6.1 | 0.00 | 0.00 | 0.00 | 19 | 1018.5 |